Weather History for PAWM - September, 2014

Change the Weather History Date:

Tuesday, September 2, 2014

  Actual Average (WUND) Record (WUND)
Temperature  
Mean Temperature 64 °F -  
Max Temperature 69 °F - - (-1)
Min Temperature 59 °F - - (-1)
Degree Days  
Heating Degree Days 2    
Growing Degree Days 14 (Base 50)    
Moisture  
Dew Point 58 °F    
Average Humidity 80    
Maximum Humidity 93    
Minimum Humidity 68    
Precipitation  
Precipitation 0.04 in - - ()
Sea Level Pressure  
Sea Level Pressure 29.96 in    
Wind  
Wind Speed 6 mph (WNW)    
Max Wind Speed 12 mph    
Max Gust Speed -    
Visibility 10 miles    
Events Rain    
Averages and records for this station are not official NWS values.
T = Trace of Precipitation, MM = Missing Value Source: NWS Daily Summary

Daily Weather History Graph

Daily Weather History Graph

Search for Another Location

Airport or City:

Trip Planner

Search our weather history database for the weather conditions in past years. The results will help you decide how hot, cold, wet, or windy it might be!

Date:

Astronomy

Sep. 02, 2014 Rise Set
Actual Time 7:37 AM AKDT 10:06 PM AKDT
Civil Twilight 6:43 AM AKDT 11:00 PM AKDT
Nautical Twilight 5:27 AM AKDT 12:14 AM AKDT
Astronomical Twilight 3:25 AM AKDT 2:20 AM AKDT
Moon 6:19 PM AKDT No Moon Set
Length of Visible Light 16h 16m
Length of Day
14h 28m
First Quarter, 54% of the Moon is Illuminated
Sep 2
First Quarter
Sep 8
Full
Sep 15
Last Quarter
Sep 23
New
Oct 1
First Quarter

Hourly Weather History & Observations

Time (AKDT) Temp. Dew Point Humidity Pressure Visibility Wind Dir Wind Speed Gust Speed Precip Events Conditions
12:58 AM 62.1 °F 54.0 °F 75% 29.83 in 10.0 mi NW 8.1 mph - N/A   Clear
1:58 AM 61.0 °F 55.9 °F 83% 29.86 in 10.0 mi NW 9.2 mph - N/A   Clear
2:58 AM 61.0 °F 55.9 °F 83% 29.87 in 10.0 mi North 6.9 mph - N/A   Clear
3:58 AM 59.0 °F 55.0 °F 87% 29.89 in 10.0 mi North 6.9 mph - N/A   Clear
4:58 AM 60.1 °F 57.0 °F 90% 29.91 in 10.0 mi North 4.6 mph - N/A   Clear
5:58 AM 60.1 °F 57.9 °F 93% 29.92 in 10.0 mi WNW 3.5 mph - N/A   Clear
6:58 AM 61.0 °F 57.0 °F 87% 29.93 in 10.0 mi Calm Calm - N/A   Clear
8:58 AM 61.0 °F 57.0 °F 87% 29.95 in 10.0 mi Calm Calm - N/A   Clear
9:58 AM 62.1 °F 57.9 °F 86% 29.96 in 10.0 mi SSE 4.6 mph - N/A   Clear
10:58 AM 63.0 °F 57.0 °F 81% 29.97 in 10.0 mi SE 4.6 mph - N/A   Clear
11:58 AM 64.0 °F 57.0 °F 78% 29.98 in 10.0 mi Variable 3.5 mph - N/A   Clear
12:58 PM 66.9 °F 55.9 °F 68% 29.98 in 10.0 mi SSE 5.8 mph - N/A   Clear
1:40 PM 64.4 °F 57.2 °F 77% 29.95 in 6.0 mi North 9.2 mph - 0.00 in Rain Light Rain
1:58 PM 66.0 °F 59.0 °F 78% 29.98 in 10.0 mi North 3.5 mph - 0.00 in   Mostly Cloudy
2:28 PM 64.4 °F 59.0 °F 83% 29.97 in 7.0 mi West 11.5 mph - 0.01 in Rain Light Rain
2:58 PM 64.0 °F 59.0 °F 84% 30.00 in 10.0 mi WNW 6.9 mph - 0.01 in   Overcast
3:58 PM 64.0 °F 57.0 °F 78% 30.00 in 10.0 mi West 5.8 mph - 0.00 in   Overcast
4:16 PM 64.4 °F 57.2 °F 77% 29.97 in 10.0 mi West 4.6 mph - N/A   Overcast
4:58 PM 64.0 °F 57.9 °F 80% 30.00 in 10.0 mi Variable 3.5 mph - 0.01 in   Overcast
5:58 PM 66.9 °F 55.9 °F 68% 29.99 in 9.0 mi West 5.8 mph - N/A   Overcast
6:29 PM 68.0 °F 57.2 °F 68% 29.96 in 9.0 mi WSW 10.4 mph - N/A   Mostly Cloudy
6:58 PM 68.0 °F 57.0 °F 68% 29.99 in 10.0 mi West 9.2 mph - N/A   Overcast
7:58 PM 66.0 °F 57.9 °F 75% 30.00 in 10.0 mi North 4.6 mph - N/A   Overcast
8:41 PM 66.2 °F 59.0 °F 78% 29.96 in 10.0 mi Calm Calm - 0.01 in Rain Light Rain
8:58 PM 66.9 °F 60.1 °F 79% 29.99 in 10.0 mi SW 6.9 mph - 0.01 in   Mostly Cloudy
9:58 PM 66.0 °F 61.0 °F 84% 30.01 in 10.0 mi SW 3.5 mph - 0.01 in Rain Light Rain
10:58 PM 66.0 °F 61.0 °F 84% 30.02 in 10.0 mi West 4.6 mph - 0.00 in   Overcast
11:58 PM 64.9 °F 59.0 °F 81% 30.04 in 10.0 mi NNW 6.9 mph - N/A   Scattered Clouds